Find Local Weather

World > North America > United States > Illinois

Chicago, Illinois Regional Weather

Lat: 41.88N, Lon: 87.63W
Wx Zone: ILZ014
Feedback
Expires:201804221500;;332164
ASUS43 KLOT 221408
RWRIL 

ILLINOIS REGIONAL WEATHER ROUNDUP
NATIONAL WEATHER SERVICE CHICAGO/ROMEOVILLE IL
900 AM CDT SUN APR 22 2018

NOTE: "FAIR" INDICATES FEW OR NO CLOUDS BELOW 12,000 FEET WITH NO
SIGNIFICANT WEATHER AND/OR OBSTRUCTIONS TO VISIBILITY.

* THESE STATIONS ARE NOT UNDER NWS QUALITY CONTROL. THEY ALSO MAY NOT
  REPORT WEATHER SUCH AS PRECIPITATION OR FOG.


ILZ005-006-012>014-019>023-221500-
NORTHEAST ILLINOIS
  
CITY           SKY/WX    TMP DP  RH WIND       PRES   REMARKS
CHICAGO-OHARE  PTSUNNY   49  28  44 E7        30.36S                  
CHICAGO-MIDWAY PTSUNNY   51  26  37 NE9       30.37S                  
AURORA         FAIR      50  26  39 NE10      30.35F                  
LANSING*       FAIR      52  29  41 E10       30.36S                  
JOLIET*        FAIR      52  29  41 E8        30.35S                  
WAUKEGAN       FAIR      46  28  49 NE6       30.38S                  
DUPAGE AIRPORT FAIR      49  27  42 E7        30.35F                  
KANKAKEE*      FAIR      52  22  30 E10       30.35R                  
WHEELING       FAIR      48  27  44 NE6       30.39S                  
MORRIS*        FAIR      53  26  35 E13       30.34S                  
ROMEOVILLE*    FAIR      51  29  44 E10       30.35F                  
NORTHERLY ISL    N/A     45  32  60 NE5         N/A                   
$$


SKY/WX - Weather  TMP - Temperature  DP - Dewpoint  RH - Relative Humidity
WIND - Wind Direction/Speed PRES - Barometric Pressure